Tracking 31027 objects as of 19-Jul-2025
HD Live streaming from Space Station
objects crossing your sky now

PALAPA B1

Track PALAPA B1 now!
PALAPA B1 is classified as:


NORAD ID: 14134
Int'l Code: 1983-059C
Perigee: 35,799.4 km
Apogee: 35,829.6 km
Inclination: 12.0 °
Period: 1,437.2 minutes
Semi major axis: 42185 km
RCS: 1.2604 m2 (large)
Launch date: June 18, 1983
Source: Indonesia (INDO)
Launch site: AIR FORCE EASTERN TEST RANGE (AFETR)
Your satellite tracking list
CREW DRAGON DEMO-2 DEB
Track 1 satellite(s)




NASA's NSSDC Master Catalog

Two Line Element Set (TLE):
1 14134U 83059C   25199.59745469 -.00000321  00000-0  00000-0 0  9990
2 14134  12.0104 331.7388 0003585 136.5393 180.5975  1.00197829117446
Source of the keplerian elements: AFSPC